Temp_Advection
nan nan nan nan nan nan nan nan nan nan nan nan nan nan nan nan nan nan nan nan nan nan nan nan nan nan nan
nan -0 -0 -0 -1 -1 -0 -0 -0 -0 0 1 1 0 -0 -0 -1 -0 -0 -1 -0 -0 -1 -0 -0 -0 nan
nan -0 -0 -1 -0 -0 -0 -0 -0 0 -0 0 1 1 1 -0 -0 -0 -0 -0 -1 -0 -0 -0 -0 -0 nan
nan -0 -0 -0 -0 -0 -0 -0 0 -1 -1 -0 -0 0 0 0 -0 -1 -0 -0 -0 -0 -0 -0 -0 -0 nan
nan -0 -0 -0 -0 -0 -0 -0 -1 -0 -2 -1 -0 -0 -0 -0 0 -0 -1 -0 -0 -1 -0 -0 -0 -0 nan
nan -0 -0 -0 -0 -0 -1 -0 -1 -0 -1 -1 -0 -0 0 0 -0 -0 0 0 -0 -0 -1 -0 -0 -0 nan
nan -0 0 0 0 0 -0 -1 0 -0 -0 -1 -0 -0 0 0 -0 -0 -0 -0 -0 1 0 -1 -1 -0 nan
nan -0 0 0 0 0 1 0 -0 0 0 -0 -0 -0 0 0 -0 -0 0 0 -0 0 0 0 -0 -0 nan
nan 0 0 0 0 0 0 0 -0 -0 0 -0 -0 -1 -1 0 0 -0 -0 -0 0 0 0 1 0 -0 nan
nan 0 0 -0 -0 -0 0 -0 -0 -0 -0 0 -0 -0 -1 -1 0 0 -0 -1 -0 -0 -0 -0 0 0 nan
nan -0 -0 0 0 0 0 0 0 -0 0 0 -0 0 0 -2 -2 -0 -0 -0 -0 -0 -0 -0 0 0 nan
nan -0 -0 -0 0 0 0 0 1 0 0 0 -0 -0 0 -0 -1 -0 -0 -0 -0 -0 -0 -0 -0 0 nan
nan -0 -0 -0 -0 -0 -0 -0 0 0 0 0 0 -0 0 -0 -1 -0 0 -0 -0 -1 -0 -0 -0 -0 nan
nan -0 -0 -0 -0 -0 -0 -0 -1 -0 0 0 0 0 -0 0 -0 -0 -0 -0 -0 -1 -1 -0 -0 -0 nan
nan -0 -0 -0 -0 -0 -0 -0 -1 -1 -1 -0 -0 0 0 -0 0 -0 -0 -0 -0 -0 -0 -0 -0 -0 nan
nan -0 -0 -0 -0 -0 -0 -0 -0 -0 -1 -1 -1 -1 -1 -0 -0 -0 -0 0 -0 -0 -0 -0 -0 -0 nan
nan nan nan nan nan nan nan nan nan nan nan nan nan nan nan nan nan nan nan nan nan nan nan nan nan nan nan
Wind_Speed
13 15 19 21 21 22 23 23 22 23 20 20 23 24 25 26 24 23 24 24 25 24 24 25 20 19 19
14 16 19 18 20 21 21 20 21 19 23 21 21 22 25 23 22 23 24 24 24 23 22 21 21 19 20
14 14 14 17 19 20 19 19 19 23 22 21 24 23 23 22 20 20 21 22 22 21 21 22 21 20 19
13 13 14 14 16 18 20 20 22 22 22 25 23 23 21 20 19 19 21 22 20 20 20 20 19 19 19
12 12 12 15 17 20 21 22 23 19 23 24 22 20 18 18 18 21 21 19 16 17 16 16 16 16 17
11 13 13 15 17 19 21 26 23 18 25 24 19 19 18 19 21 20 18 15 16 19 20 17 18 18 18
10 13 16 17 17 20 21 22 21 23 20 24 16 20 19 16 16 18 18 21 22 24 22 20 20 20 20
11 15 16 17 18 20 21 20 21 17 16 18 19 20 23 13 16 18 18 18 21 21 19 19 20 20 22
12 14 15 16 17 19 17 20 21 21 10 19 17 24 25 13 16 18 18 19 20 20 19 19 18 18 17
10 11 12 13 15 16 17 19 20 16 11 24 20 18 20 17 23 19 19 19 20 17 17 18 16 15 14
11 10 11 13 14 16 16 17 19 19 19 19 25 22 18 25 29 18 20 21 16 19 18 17 15 14 15
10 10 13 15 15 16 16 16 17 18 17 16 20 21 21 24 25 23 20 18 15 19 18 18 18 13 12
11 12 14 16 17 17 16 16 16 15 14 15 16 19 20 22 25 23 22 20 15 21 19 17 17 16 14
11 13 15 17 19 19 19 19 20 17 15 15 16 18 20 20 20 20 16 18 23 21 19 15 13 15 14
13 15 17 18 20 20 19 19 19 20 21 19 17 17 16 16 17 13 16 20 19 19 17 16 12 14 13
14 16 18 20 21 21 19 18 18 18 19 20 21 23 20 13 12 13 16 20 19 16 15 15 14 13 12
15 15 17 20 21 20 21 18 18 18 19 18 19 19 19 18 15 14 21 21 18 17 14 13 12 12 10
Wind_Direction
311 313 321 322 328 330 333 333 330 324 321 318 315 315 315 318 318 318 316 313 311 310 309 310 309 316 317
318 320 327 331 324 334 334 328 326 325 326 327 322 317 315 315 311 313 312 316 313 310 310 308 305 305 308
321 323 320 328 331 334 331 330 335 332 333 330 330 320 314 311 310 306 309 314 318 310 308 304 300 304 308
322 321 328 332 328 328 335 336 338 342 335 338 331 324 321 316 311 305 305 307 318 316 304 305 304 303 305
325 321 328 328 331 335 333 336 342 340 333 341 334 328 325 324 316 308 305 310 316 313 311 310 308 306 307
323 315 319 329 331 329 336 339 333 335 326 331 327 326 326 323 321 319 316 313 299 308 300 298 302 304 305
309 315 321 326 323 331 332 327 318 322 323 317 327 323 327 330 342 334 323 316 309 304 307 305 302 300 297
312 316 317 319 324 325 323 316 322 322 316 311 329 327 337 333 335 338 338 337 331 326 318 311 307 302 295
319 317 322 324 323 323 322 323 325 326 328 325 334 331 345 341 339 342 340 335 332 329 326 321 317 314 310
325 322 327 328 326 327 327 326 327 330 324 326 329 334 332 341 341 339 335 337 335 334 336 336 324 320 313
333 333 331 331 328 324 324 316 317 313 327 318 321 329 318 321 333 339 334 335 338 342 342 341 328 324 320
333 332 329 332 333 328 326 322 319 316 324 317 310 320 317 317 319 322 327 336 333 340 340 341 344 330 312
333 332 335 338 337 333 329 326 327 328 328 321 317 320 317 313 313 322 325 331 328 334 336 335 336 341 331
328 331 338 340 342 334 330 332 333 331 329 324 317 318 317 317 314 315 320 320 322 328 327 330 326 330 336
330 334 337 337 338 343 335 335 335 333 334 334 331 328 322 315 313 320 318 322 323 330 335 332 322 320 324
329 333 334 336 338 340 341 339 338 339 339 339 342 340 343 344 327 331 322 323 330 338 339 338 333 333 322
326 327 331 336 338 336 340 341 341 337 334 339 343 344 340 337 336 332 324 329 332 334 330 330 334 338 337
Height
1517 1515 1510 1505 1500 1496 1491 1487 1483 1480 1474 1471 1468 1465 1460 1456 1453 1450 1447 1444 1441 1438 1434 1431 1427 1424 1421
1514 1510 1505 1502 1497 1491 1487 1486 1481 1476 1470 1466 1462 1459 1455 1452 1449 1446 1442 1438 1435 1433 1430 1427 1423 1421 1419
1508 1506 1503 1498 1495 1491 1486 1482 1477 1472 1467 1463 1458 1454 1451 1447 1444 1441 1438 1435 1432 1429 1427 1423 1419 1417 1415
1506 1505 1500 1496 1493 1488 1482 1480 1475 1469 1465 1461 1455 1450 1447 1443 1440 1436 1433 1430 1428 1425 1422 1419 1416 1413 1410
1502 1501 1498 1494 1491 1486 1481 1476 1472 1469 1464 1460 1453 1449 1445 1441 1437 1432 1429 1427 1425 1421 1418 1415 1413 1410 1407
1503 1503 1498 1491 1487 1485 1480 1474 1471 1470 1463 1457 1454 1449 1444 1439 1433 1428 1425 1423 1420 1417 1414 1411 1409 1406 1404
1497 1500 1494 1489 1486 1482 1478 1476 1473 1467 1463 1457 1453 1447 1442 1436 1431 1427 1423 1419 1415 1412 1409 1406 1404 1402 1399
1492 1493 1491 1487 1483 1480 1477 1475 1470 1466 1463 1456 1451 1445 1438 1434 1430 1425 1421 1417 1413 1409 1406 1402 1399 1396 1393
1492 1490 1488 1485 1481 1478 1476 1471 1467 1463 1460 1454 1449 1442 1436 1432 1428 1424 1420 1415 1411 1407 1403 1399 1395 1392 1389
1490 1488 1485 1483 1480 1476 1473 1469 1465 1459 1457 1452 1447 1443 1435 1431 1427 1423 1418 1414 1409 1405 1401 1397 1393 1389 1387
1487 1485 1483 1481 1478 1475 1471 1467 1463 1459 1455 1451 1445 1442 1438 1430 1424 1421 1418 1413 1408 1404 1400 1396 1392 1389 1385
1485 1483 1482 1479 1476 1472 1468 1464 1460 1456 1452 1449 1444 1440 1436 1430 1425 1420 1416 1412 1407 1403 1399 1395 1391 1387 1384
1484 1482 1480 1477 1473 1469 1465 1461 1457 1453 1450 1446 1442 1438 1434 1429 1424 1418 1413 1410 1407 1402 1397 1394 1390 1386 1382
1483 1481 1478 1474 1470 1466 1461 1457 1453 1450 1447 1443 1439 1435 1430 1426 1422 1417 1414 1411 1405 1400 1396 1393 1389 1386 1382
1481 1478 1475 1472 1468 1463 1459 1454 1450 1446 1442 1439 1435 1432 1428 1424 1419 1416 1413 1409 1404 1399 1395 1391 1388 1385 1381
1479 1476 1473 1469 1465 1461 1457 1452 1448 1445 1441 1436 1432 1427 1424 1421 1418 1414 1411 1407 1402 1397 1394 1391 1387 1384 1380
1476 1474 1471 1467 1464 1459 1455 1451 1447 1444 1440 1436 1431 1428 1423 1419 1417 1413 1409 1404 1400 1397 1394 1390 1387 1383 1380